Location: Dewlish
(50.7833°N, 2.3167°W)
Time: 06:16:23
(UTC+00:00)

Daily predictions for brighter satellites

Satellite Brightness Start Highest point End
(mag) Time Altitude Azimuth Time Altitude Azimuth Time Altitude Azimuth
BREEZE-M DEB (TANK) 2.2 20:00:29 10° WSW 20:02:52 55° SSE 20:07:47 10° E
SL-27 R/B 4.5 20:05:49 10° ESE 20:06:16 10° E 20:06:43 10° E
NOSS 3-2 (C) 4.0 20:01:49 10° S 20:06:50 32° ESE 20:12:25 10° NE
Cosmos 1470 Rocket 4.4 20:04:01 10° SSE 20:07:54 32° E 20:11:47 10° NNE
Sich 1 3.2 20:04:09 10° S 20:08:36 87° W 20:13:05 10° N
BREEZE-M DEB (TANK) 1.9 20:06:46 10° W 20:10:21 63° S 20:12:18 10° E
Cosmos 2082 Rocket 2.2 20:05:46 10° SSW 20:11:26 76° ESE 20:17:08 10° NNE
MetOp-A 4.4 20:06:50 10° S 20:12:11 77° WSW 20:17:34 10° NNW
USA 186 3.6 20:11:36 10° SSW 20:13:24 21° W 20:15:14 10° NW
Meteor 1-4 Rocket 2.6 20:13:06 10° NNW 20:16:34 75° W 20:20:00 10° S
Cosmos 2322 Rocket 2.8 20:12:23 10° NNW 20:17:51 45° NE 20:23:14 10° ESE
COSMOS 2406 4.4 20:12:40 10° SW 20:18:15 50° NW 20:23:50 10° NNE
Cosmos 2278 4.4 20:13:37 10° NW 20:19:12 54° WSW 20:24:43 10° S
Cosmos 1862 Rocket 3.6 20:15:52 10° N 20:20:20 72° ENE 20:24:44 10° SSE
ERS-1 Rocket 4.4 20:16:33 10° ESE 20:20:28 23° ENE 20:24:24 10° N
H-2A R/B 4.1 20:16:30 10° SSW 20:20:47 27° W 20:25:00 10° NW
Cosmos 841 Rocket 4.4 20:20:37 10° NNW 20:25:27 36° NE 20:29:56 12° ESE
Meteor 1-25 Rocket 4.5 20:21:04 10° SSE 20:26:25 49° E 20:31:52 10° NNE
Cosmos 2360 Rocket 3.3 20:21:44 10° NNW 20:26:52 33° NE 20:31:48 11° ESE
Cosmos 676 Rocket 4.0 20:21:42 10° SSW 20:27:01 76° ESE 20:32:23 10° NNE
USA 276 2.4 20:24:27 10° W 20:27:35 55° SSW 20:30:10 14° ESE
SPOT 1/Viking Rocket 4.3 20:23:32 10° SE 20:28:14 37° ENE 20:33:02 10° N
X-37B 2.0 20:25:38 10° WSW 20:28:16 24° S 20:30:22 13° SE
Meteor 1-18 Rocket 4.5 20:23:02 10° N 20:28:29 51° ENE 20:33:52 10° SSE
USA 32 4.2 20:24:10 10° SSE 20:29:13 52° E 20:34:18 10° NNE
Terra 3.6 20:28:07 10° E 20:31:23 19° ENE 20:34:39 10° NNE
ATLAS 3B R/B 3.7 20:27:39 10° SSE 20:32:13 20° ESE 20:36:48 10° ENE
IGS 5A 4.1 20:29:39 12° SE 20:33:15 41° ENE 20:37:10 10° N
Cosmos 1238 Rocket 2.7 20:30:40 10° SSE 20:33:22 35° E 20:36:14 10° NNE
Cosmos 468 Rocket 4.0 20:29:19 10° NNW 20:34:39 77° ENE 20:39:43 11° SSE
CZ-2C R/B 3.6 20:30:51 10° NNE 20:35:28 75° ESE 20:39:57 10° S
Cosmos 1980 Rocket 3.2 20:30:31 10° NW 20:35:53 45° WSW 20:41:13 10° S
Cosmos 44 3.5 20:31:22 10° NW 20:36:14 68° NE 20:40:36 14° SE
USA 234 3.7 20:29:57 10° E 20:36:22 61° NNE 20:42:48 10° WNW
Lacrosse 5 2.2 20:32:30 10° WNW 20:37:29 58° SW 20:41:50 13° SE
Cosmos 1934 Rocket 4.1 20:31:19 10° S 20:37:41 87° E 20:44:05 10° N
Resurs 01 Rocket 1.7 20:35:45 10° SSE 20:40:10 83° WSW 20:44:39 10° NNW
Cosmos 1602 4.2 20:38:10 10° SSE 20:41:53 43° E 20:45:38 10° NNE
GP-B 3.1 20:39:17 10° N 20:43:44 65° E 20:48:09 10° S
Cosmos 1833 Rocket 4.1 20:41:37 10° WSW 20:46:58 43° NW 20:52:21 10° NNE
SPOT 3 Rocket 4.2 20:43:06 10° S 20:48:12 56° WSW 20:53:20 10° NNW
Cosmos 1933 Rocket 3.7 20:44:02 10° S 20:48:21 56° E 20:52:44 10° NNE
Cosmos 1666 Rocket 4.4 20:44:41 10° SSW 20:48:54 52° WNW 20:53:11 10° N
Cosmos 1867 4.1 20:46:01 10° SW 20:51:26 66° NW 20:56:55 10° NE
COSMOS 2428 4.4 20:48:30 10° NNW 20:53:01 23° NE 20:57:32 10° E
Cosmos 405 Rocket 2.6 20:50:58 10° S 20:54:39 67° E 20:58:25 10° NNE
Cosmos 1954 Rocket 4.4 20:49:53 10° SSW 20:55:12 70° WNW 21:00:32 10° NNE
Spot 2 Rocket 3.5 20:51:17 14° SSE 20:55:40 70° ENE 21:00:45 10° N
USA 238 DEB 3.7 20:49:40 10° SW 20:56:20 87° SE 21:03:20 10° NE
USA 238 3.7 20:49:46 10° SW 20:56:26 86° SE 21:03:26 10° NE
Cosmos 2237 Rocket 4.5 20:53:44 10° N 20:56:49 15° NNE 20:59:54 10° ENE
Cosmos 1515 3.8 20:53:17 10° N 20:57:06 59° ENE 20:59:36 20° SSE
Meteor 1-20 Rocket 4.3 20:51:30 10° S 20:57:21 85° E 21:03:14 10° NNE
Okean 1-7 3.1 20:54:39 10° N 20:58:56 59° ENE 21:01:51 19° SSE
CENTAUR R/B 2.5 20:53:41 10° SSW 20:59:36 63° SE 21:06:39 10° NE
Cosmos 1869 Rocket 4.4 20:57:44 19° SE 21:00:07 32° E 21:04:06 10° NNE
Cosmos 1741 Rocket 4.0 20:57:56 10° S 21:03:06 60° ESE 21:08:20 10° NNE
Cosmos 1437 Rocket 2.6 21:01:02 10° N 21:04:50 79° ENE 21:07:19 21° SSE
FALCON 9 DEB 3.6 21:02:41 10° W 21:06:09 61° N 21:09:36 10° ENE
OBJECT-B 3.3 21:05:08 10° SW 21:07:40 20° W 21:10:14 10° NW
Cosmos 1763 Rocket 3.8 21:03:37 10° NNW 21:08:55 68° WSW 21:13:14 15° S
Cosmos 1703 Rocket 3.5 21:04:54 10° N 21:09:17 82° E 21:12:20 19° SSE
H-2A R/B 3.3 21:06:06 10° NNE 21:10:15 77° ESE 21:14:24 10° S
Cosmos 2333 Rocket 3.4 21:06:12 10° NNW 21:11:22 32° NE 21:15:19 15° E
Cosmos 1570 Rocket 4.0 21:06:02 10° NNW 21:11:24 76° ENE 21:14:57 22° SSE
ATLAS 5 CENTAUR R/B 2.3 21:09:42 10° NW 21:11:59 43° NE 21:14:58 18° ESE
Cosmos 2084 Rocket 3.3 21:09:30 10° SW 21:13:40 69° SE 21:17:58 10° NE
FAST 4.3 21:12:00 10° N 21:14:37 83° E 21:15:48 31° SSE
SWARM A 4.4 21:14:25 10° N 21:17:43 55° E 21:18:54 33° SSE
Landsat 7 3.9 21:15:20 17° S 21:19:03 76° WSW 21:23:51 10° NNW
SPOT 5 2.9 21:17:39 26° SE 21:19:54 54° ENE 21:24:16 10° N
Cosmos 2208 Rocket 4.0 21:17:37 10° NNW 21:22:55 79° ENE 21:25:58 25° SSE
ERBS 3.7 21:25:07 10° NW 21:28:11 33° NNE 21:30:13 17° ENE
Okean 1 4.3 21:24:45 10° NNW 21:28:39 45° W 21:31:48 15° SSW
Cosmos 1733 Rocket 4.4 21:29:41 22° E 21:30:14 23° E 21:33:41 10° NE
Meteor 1-11 Rocket 4.3 21:31:46 26° SE 21:34:12 39° E 21:39:34 10° NNE
Lacrosse 4 Rocket 2.5 21:37:37 27° E 21:37:37 27° E 21:40:37 10° NE
SL-27 R/B 2.7 21:37:55 13° SSW 21:40:50 64° WNW 21:44:08 10° NNE
Meteor 2-4 Rocket 3.7 21:35:40 10° NNW 21:41:18 80° W 21:44:40 24° S
Cosmos 2219 Rocket 3.0 21:35:58 10° NNW 21:41:22 42° NE 21:44:23 24° ESE
SL-4 R/B 1.8 21:37:28 10° W 21:41:22 79° N 21:42:58 32° E
Cosmos 2100 Rocket 3.9 21:36:57 19° S 21:41:29 73° E 21:47:38 10° NNE
Cosmos 540 Rocket 3.6 21:36:29 10° NNW 21:41:39 68° WSW 21:44:28 27° S
USA 267 3.3 21:36:01 10° ENE 21:42:24 53° SE 21:48:46 10° SW
SL-16 R/B 3.1 21:39:18 10° NW 21:44:39 43° WSW 21:48:20 19° S
Cosmos 2173 Rocket 3.9 21:41:11 21° S 21:45:28 73° E 21:51:34 10° NNE
NOSS 3-2 (A) 4.2 21:40:51 10° WSW 21:46:41 55° NW 21:53:27 10° NE
Cosmos 1242 Rocket 3.2 21:47:01 10° N 21:50:29 39° ENE 21:50:53 37° E
SAR-Lupe-2 3.4 21:49:47 10° NNE 21:53:23 72° ESE 21:54:05 54° SSE
Cosmos 2322 3.8 21:49:15 10° NNW 21:54:55 67° ENE 21:57:25 34° SE
Cosmos 2082 Rocket 4.4 21:51:20 10° W 21:56:07 27° NW 22:00:55 10° NNE
NOSS 3-2 (C) 3.9 21:51:22 10° WSW 21:57:14 66° NW 22:04:03 10° NE
Cosmos 1725 Rocket 4.2 21:55:18 31° SSE 21:58:06 53° E 22:04:15 10° NNE
Cosmos 1459 Rocket 4.0 21:53:46 20° S 21:58:21 87° ESE 22:04:47 10° N
ERS-1 Rocket 3.3 21:56:14 27° S 21:58:52 62° WSW 22:03:53 10° NNW
Cosmos 2346 Rocket 4.4 21:54:33 10° N 22:00:38 80° E 22:03:31 33° SSE
Cosmos 1833 4.3 21:58:11 31° S 22:00:42 54° ESE 22:06:14 10° NE
Meteor 1-13 Rocket 4.1 21:55:17 10° NNW 22:00:50 87° W 22:03:23 34° S
Cosmos 2322 Rocket 3.2 21:56:36 10° NW 22:01:52 39° WSW 22:05:03 21° SSW
Cosmos 1500 3.5 22:00:27 31° SSW 22:02:03 62° WNW 22:05:47 10° N
Cosmos 1536 3.0 22:03:04 49° ESE 22:03:19 50° E 22:07:10 10° NNE
USA 276 4.4 22:01:15 10° WSW 22:02:32 16° WSW 22:02:32 16° WSW
Cosmos 1378 Rocket 4.3 21:59:54 10° N 22:04:04 37° ENE 22:04:52 34° E
Cosmos 2221 Rocket 3.5 21:59:40 10° N 22:04:12 89° W 22:05:37 44° S
Cosmos 2016 Rocket 4.0 22:02:20 29° S 22:05:42 71° E 22:12:05 10° NNE
Okean 3 3.7 22:02:57 10° NNW 22:07:14 67° W 22:08:38 40° SSW
Cosmos 841 Rocket 4.4 22:02:30 10° NW 22:07:24 42° WSW 22:10:01 24° SSW
Terra 1.9 22:06:49 39° S 22:08:36 76° WSW 22:13:24 10° NNW
Cosmos 2333 4.2 22:04:01 10° NNW 22:09:52 83° ENE 22:12:06 39° SE
Cosmos 2360 Rocket 2.5 22:05:38 10° NW 22:11:12 58° WSW 22:13:33 33° S
COSMOS 2487 3.0 22:12:29 44° ENE 22:12:29 44° ENE 22:15:07 10° NNE
SL-16 R/B 4.4 22:08:49 10° N 22:12:37 18° NNE 22:16:24 10° ENE
Cosmos 1666 2.4 22:12:27 71° SSE 22:12:45 79° E 22:16:33 10° NNE
Resurs 01 Rocket 4.4 22:16:06 10° WSW 22:17:24 11° W 22:18:41 10° WNW
USA 234 3.2 22:16:21 35° SE 22:19:21 72° SW 22:25:54 10° WNW
Lacrosse 5 4.0 22:17:06 10° W 22:19:32 14° WSW 22:21:01 12° SW
Iridium 4 Rocket 3.2 22:18:30 40° SSW 22:19:49 65° W 22:23:59 10° N
Cosmos 1864 Rocket 4.4 22:17:15 35° S 22:20:05 76° E 22:26:23 10° NNE
Cosmos 1378 3.6 22:17:42 10° N 22:21:16 48° ENE 22:21:16 48° ENE
ATLAS 3B R/B 2.5 22:15:21 10° SW 22:21:56 82° SE 22:28:38 10° NE
MOS 1-B Rocket 4.2 22:16:34 10° NNE 22:21:59 46° E 22:23:10 40° SE
Cosmos 2297 Rocket 4.2 22:32:12 13° E 22:32:12 13° E 22:33:47 10° ENE
Okean 2 4.4 22:30:38 10° N 22:34:25 34° ENE 22:34:30 33° ENE
Cosmos 1743 3.5 22:35:21 40° ENE 22:35:21 40° ENE 22:38:29 10° NNE
Thor Agena Rocket 4.2 22:30:11 10° NNE 22:34:53 36° E 22:35:03 36° ESE
Cosmos 2233 Rocket 4.0 22:34:08 42° SSE 22:36:13 66° E 22:42:29 10° NNE
COSMOS 2428 2.7 22:32:22 10° NNW 22:38:09 85° ENE 22:39:48 49° SE
Cosmos 2061 Rocket 4.1 22:35:41 28° SSW 22:39:04 72° WNW 22:45:18 10° N
Cosmos 44 Rocket 3.3 22:37:04 10° NW 22:42:04 79° SW 22:42:56 61° SSE
Cosmos 2237 Rocket 3.0 22:37:02 10° NNW 22:42:27 44° NE 22:44:34 31° E
FALCON 9 DEB 3.7 22:39:54 10° WNW 22:42:51 57° NW 22:42:51 57° NW
Cosmos 1271 Rocket 2.7 22:40:55 10° N 22:44:31 75° NNE 22:44:31 75° NNE
NOSS 0 Rocket 4.0 22:43:28 10° NNW 22:49:44 70° NE 22:51:50 43° SE
Cosmos 1674 Rocket 3.6 22:46:17 10° NNW 22:50:36 65° W 22:51:00 61° SW
CENTAUR R/B 3.7 22:44:31 10° WSW 22:50:39 46° NNW 22:57:54 10° NE
Cosmos 2333 Rocket 2.4 22:50:20 10° NW 22:56:03 62° WSW 22:57:19 49° SSW
Cosmos 1503 Rocket 4.1 22:58:15 57° SE 22:58:40 59° ESE 23:03:57 10° NNE
Geosat 4.0 22:58:12 59° SE 22:59:08 79° ENE 23:04:12 10° NNW
Cosmos 1486 Rocket 4.0 23:02:24 49° SW 23:03:50 79° WNW 23:09:04 10° NNE
ERBS 4.0 23:01:23 10° WNW 23:03:07 28° WNW 23:03:07 28° WNW
Cosmos 1733 Rocket 3.9 23:06:45 38° WSW 23:07:46 44° WNW 23:12:03 10° N
Meteor 2-11 Rocket 4.3 23:06:27 53° S 23:07:57 79° E 23:14:06 10° NNE
DNEPR-1 R/B 4.4 23:07:11 10° NW 23:13:17 63° NE 23:14:43 45° E
Lacrosse 4 Rocket 2.4 23:13:52 29° W 23:15:33 43° NW 23:19:34 10° NNE
Cosmos 773 Rocket 3.9 23:11:50 10° NNW 23:16:59 71° ENE 23:17:38 63° ESE
ALOS 2 2.6 23:17:01 69° ENE 23:17:01 69° ENE 23:21:23 10° N
Helios 1A 4.2 23:18:09 31° ENE 23:18:22 31° ENE 23:22:06 10° N
Cosmos 968 Rocket 3.6 23:17:23 49° SW 23:18:39 70° WNW 23:23:49 10° NNE
SL-4 R/B 3.8 23:17:16 10° WNW 23:18:33 19° W 23:18:33 19° W
Cosmos 2227 Rocket 3.4 23:22:00 26° E 23:22:00 26° E 23:26:09 10° NE
Cosmos 1707 4.0 23:18:36 10° N 23:21:46 34° NE 23:21:46 34° NE
Cosmos 2219 Rocket 2.8 23:20:01 10° NW 23:25:21 42° WSW 23:26:05 40° SW
USA 267 3.4 23:19:06 10° ENE 23:25:38 72° NNW 23:32:08 10° WSW
EO 1 Del DPAF 3.8 23:25:13 10° NNE 23:28:11 53° NNE 23:28:11 53° NNE
Cosmos 1782 Rocket 3.6 23:35:17 72° NNE 23:35:17 72° NNE 23:39:15 10° NNE
Cosmos 1538 Rocket 4.1 23:29:46 10° NNW 23:34:56 66° ENE 23:35:35 60° ESE
Spot 4 4.4 23:37:26 44° WSW 23:37:40 44° W 23:42:19 10° NNW
Cosmos 1842 3.9 23:33:57 10° NNW 23:37:09 51° NW 23:37:09 51° NW
Cosmos 1908 Rocket 4.1 23:41:58 49° W 23:42:05 49° WNW 23:46:21 10° N
Cosmos 1607 4.1 23:38:44 10° NW 23:45:12 74° NE 23:47:26 43° ESE
Terra 4.3 23:45:55 10° W 23:47:12 11° W 23:48:28 10° WNW
